Weather History for Willimantic, CT

Change the Weather History Date:

Sunday, March 23, 2014

  Actual Average Record
Temperature  
Mean Temperature 34 °F -  
Max Temperature 39 °F 46 °F 75 °F (2012)
Min Temperature 26 °F 26 °F 11 °F (1988)
Degree Days  
Heating Degree Days 32    
Moisture  
Dew Point 15 °F    
Average Humidity 49    
Maximum Humidity 78    
Minimum Humidity 28    
Precipitation  
Precipitation 0.00 in - - ()
Sea Level Pressure  
Sea Level Pressure 30.00 in    
Wind  
Wind Speed 6 mph (WNW)    
Max Wind Speed 15 mph    
Max Gust Speed 23 mph    
Visibility 10 miles    
Events      
Averages and records for this station are not official NWS values.
T = Trace of Precipitation, MM = Missing Value Source: NWS Daily Summary

Daily Weather History Graph

Daily Weather History Graph

Search for Another Location

Airport:

Trip Planner

Search our weather history database for the weather conditions in past years. The results will help you decide how hot, cold, wet, or windy it might be!

Date:

Astronomy

Mar. 23, 2014 Rise Set
Actual Time 6:46 AM EDT 7:04 PM EDT
Civil Twilight 6:19 AM EDT 7:32 PM EDT
Nautical Twilight 5:46 AM EDT 8:04 PM EDT
Astronomical Twilight 5:13 AM EDT 8:38 PM EDT
Moon 1:22 AM EDT (3/23) 11:21 AM EDT (3/23)
Length of Visible Light 13h 12m
Length of Day
12h 17m
Waning Gibbous, 55% of the Moon is Illuminated
Mar 23
Waning Gibbous
Mar 23
Last Quarter
Mar 30
New
Apr 7
First Quarter
Apr 15
Full

Hourly Weather History & Observations

Time (EDT) Temp. Windchill Dew Point Humidity Pressure Visibility Wind Dir Wind Speed Gust Speed Precip Events Conditions
12:52 AM 35.1 °F 31.0 °F 21.9 °F 59% 29.97 in 10.0 mi North 4.6 mph - N/A   Clear
1:52 AM 35.1 °F - 21.9 °F 59% 29.97 in 10.0 mi Calm Calm - N/A   Clear
2:52 AM 33.1 °F - 21.9 °F 64% 29.96 in 10.0 mi Calm Calm - N/A   Clear
3:52 AM 28.9 °F 23.9 °F 23.0 °F 78% 29.97 in 10.0 mi WNW 4.6 mph - N/A   Clear
4:52 AM 30.0 °F 26.5 °F 23.0 °F 75% 29.98 in 10.0 mi West 3.5 mph - N/A   Clear
5:52 AM 30.0 °F 26.5 °F 23.0 °F 75% 29.99 in 10.0 mi SW 3.5 mph - N/A   Clear
6:52 AM 30.0 °F - 23.0 °F 75% 30.01 in 10.0 mi Calm Calm - N/A   Clear
7:52 AM 32.0 °F - 24.1 °F 73% 30.01 in 10.0 mi Calm Calm - N/A   Clear
8:52 AM 35.1 °F 32.2 °F 25.0 °F 67% 30.01 in 10.0 mi SW 3.5 mph - N/A   Mostly Cloudy
9:52 AM 37.0 °F 33.3 °F 23.0 °F 57% 30.02 in 10.0 mi SW 4.6 mph - N/A   Mostly Cloudy
10:52 AM 37.9 °F 30.5 °F 19.0 °F 47% 30.02 in 10.0 mi West 11.5 mph - N/A   Scattered Clouds
11:52 AM 39.0 °F 31.8 °F 10.9 °F 32% 30.01 in 10.0 mi WNW 11.5 mph - N/A   Clear
12:52 PM 39.0 °F 32.8 °F 10.9 °F 32% 30.01 in 10.0 mi WNW 9.2 mph 20.7 mph N/A   Clear
1:52 PM 37.9 °F 31.5 °F 10.9 °F 33% 29.99 in 10.0 mi WNW 9.2 mph - N/A   Clear
2:52 PM 37.0 °F 28.1 °F 10.0 °F 33% 29.97 in 10.0 mi WNW 15.0 mph - N/A   Clear
3:52 PM 37.9 °F 29.2 °F 10.0 °F 32% 29.95 in 10.0 mi NNW 15.0 mph 20.7 mph N/A   Clear
4:52 PM 37.0 °F 28.5 °F 9.0 °F 31% 29.95 in 10.0 mi NNW 13.8 mph 18.4 mph N/A   Partly Cloudy
5:52 PM 35.1 °F 27.4 °F 5.0 °F 28% 29.97 in 10.0 mi WNW 10.4 mph - N/A   Clear
6:52 PM 33.1 °F 26.9 °F 6.1 °F 32% 29.99 in 10.0 mi NW 6.9 mph 18.4 mph N/A   Mostly Cloudy
7:52 PM 32.0 °F 25.6 °F 8.1 °F 37% 30.00 in 10.0 mi WNW 6.9 mph 19.6 mph N/A   Partly Cloudy
8:52 PM 30.9 °F 22.8 °F 8.1 °F 38% 30.03 in 10.0 mi NW 9.2 mph 18.4 mph N/A   Clear
9:52 PM 28.9 °F 19.8 °F 7.0 °F 40% 30.05 in 10.0 mi WNW 10.4 mph - N/A   Clear
10:52 PM 28.0 °F 17.0 °F 6.1 °F 39% 30.06 in 10.0 mi NW 13.8 mph 21.9 mph N/A   Clear
11:52 PM 26.1 °F 15.0 °F 7.0 °F 44% 30.08 in 10.0 mi NNW 12.7 mph 23.0 mph N/A   Clear